Grand Junction, CO

3:41 AM MDT on August 24, 2019 (GMT -0600)
Walker

Weather History for KGJT - July, 2019

Change the Weather History Date:

Thursday, July 18, 2019

  Actual Average Record
Temperature  
Mean Temperature 77 °F 79 °F  
Max Temperature 98 °F 94 °F 103 °F (1998)
Min Temperature 55 °F 64 °F 55 °F (1903)
Degree Days  
Heating Degree Days 0 0  
Month to date heating degree days 0 0  
Since 1 June heating degree days 25 22  
Since 1 July heating degree days 0 0  
Cooling Degree Days 12 14  
Month to date cooling degree days 260 236  
Year to date cooling degree days 472 518  
Since 1 June cooling degree days 460 467  
Growing Degree Days 26 (Base 50)    
Moisture  
Dew Point 28 °F    
Average Humidity 20    
Maximum Humidity 33    
Minimum Humidity 7    
Precipitation  
Precipitation 0.00 in 0.02 in 1.39 in (1974)
Month to date precipitation 0.02 0.31  
Year to date precipitation 6.62 4.60  
Snow  
Snow 0.00 in 0.00 in 0.00 in (2001)
Month to date snowfall 0.0 0.0  
Since 1 June snowfall 0.0 0.0  
Since 1 July snowfall 0.0 0.0  
Snow Depth 0.00 in    
Sea Level Pressure  
Sea Level Pressure 29.76 in    
Wind  
Wind Speed 6 mph (ENE)    
Max Wind Speed 18 mph    
Max Gust Speed 25 mph    
Visibility 10 miles    
Events      
T = Trace of Precipitation, MM = Missing Value Source: NWS Daily Summary

Daily Weather History Graph

Daily Weather History Graph

Search for Another Location

Airport or City:

Astronomy

Jul. 18, 2019 Rise Set
Actual Time 6:02 AM MDT 8:37 PM MDT
Civil Twilight 5:31 AM MDT 9:08 PM MDT
Nautical Twilight 4:52 AM MDT 9:47 PM MDT
Astronomical Twilight 4:09 AM MDT 10:30 PM MDT
Moon 10:05 PM MDT (7/18) 7:34 AM MDT (7/18)
Length of Visible Light 15h 37m
Length of Day
14h 35m
Full, 97% of the Moon is Illuminated
Jul 18
Full
Jul 24
Last Quarter
Jul 31
New
Aug 7
First Quarter
Aug 15
Full

Hourly Weather History & Observations

Time (MDT) Temp. Dew Point Humidity Pressure Visibility Wind Dir Wind Speed Gust Speed Precip Events Conditions
12:53 AM 77.0 °F 28.0 °F 17% 29.74 in 10.0 mi West 4.6 mph - N/A   Clear
1:53 AM 73.0 °F 32.0 °F 22% 29.75 in 10.0 mi Calm Calm - N/A   Clear
2:53 AM 66.9 °F 28.9 °F 24% 29.76 in 10.0 mi ENE 4.6 mph - N/A   Clear
3:53 AM 66.0 °F 30.0 °F 26% 29.77 in 10.0 mi ESE 5.8 mph - N/A   Clear
4:53 AM 62.1 °F 28.9 °F 29% 29.79 in 10.0 mi Calm Calm - N/A   Clear
5:53 AM 57.0 °F 28.0 °F 33% 29.83 in 10.0 mi East 3.5 mph - N/A   Clear
6:53 AM 62.1 °F 30.9 °F 31% 29.83 in 10.0 mi ESE 5.8 mph - N/A   Clear
7:53 AM 71.1 °F 35.1 °F 27% 29.84 in 10.0 mi SE 10.4 mph - N/A   Clear
8:53 AM 78.1 °F 35.1 °F 21% 29.86 in 10.0 mi SE 9.2 mph - N/A   Clear
9:53 AM 82.0 °F 34.0 °F 18% 29.84 in 10.0 mi SSE 8.1 mph - N/A   Clear
10:53 AM 84.9 °F 36.0 °F 17% 29.84 in 10.0 mi Calm Calm - N/A   Clear
11:53 AM 90.0 °F 30.9 °F 12% 29.81 in 10.0 mi NW 8.1 mph - N/A   Clear
12:53 PM 91.0 °F 28.0 °F 10% 29.79 in 10.0 mi Variable 4.6 mph - N/A   Clear
1:53 PM 93.0 °F 26.1 °F 9% 29.77 in 10.0 mi Variable 5.8 mph - N/A   Clear
2:53 PM 96.1 °F 26.1 °F 8% 29.75 in 10.0 mi WNW 8.1 mph - N/A   Clear
3:53 PM 97.0 °F 23.0 °F 7% 29.73 in 10.0 mi West 6.9 mph - N/A   Clear
4:53 PM 97.0 °F 21.0 °F 6% 29.71 in 10.0 mi NW 9.2 mph - N/A   Clear
5:53 PM 97.0 °F 21.0 °F 6% 29.71 in 10.0 mi WNW 13.8 mph 24.2 mph N/A   Clear
6:53 PM 95.0 °F 24.1 °F 8% 29.69 in 10.0 mi WNW 13.8 mph - N/A   Clear
7:53 PM 91.0 °F 30.9 °F 12% 29.68 in 10.0 mi WNW 5.8 mph - N/A   Clear
8:53 PM 81.0 °F 26.1 °F 13% 29.70 in 10.0 mi Calm Calm - N/A   Clear
9:53 PM 80.1 °F 19.9 °F 11% 29.70 in 10.0 mi ENE 4.6 mph - N/A   Clear
10:53 PM 75.0 °F 19.9 °F 13% 29.71 in 10.0 mi East 5.8 mph - N/A   Clear
11:53 PM 75.0 °F 26.1 °F 16% 29.70 in 10.0 mi ESE 8.1 mph - N/A   Clear